Location: Heiligenberg
(48.5381°N, 7.3897°E)
Time: 02:37:03
(UTC+00:00)

SL-8 Rocket - Pass Details

Date: 26 May 2022
Orbit: 958 x 989 km, 82.9° (Epoch: 26 June)

Event Time Altitude Azimuth Distance (km) Brightness Sun altitude
Rises 02:43:58 0° 349° (N) 3,712 7.5 -7.7°
Reaches altitude 10° 02:46:29 10° 348° (NNW) 2,761 6.8 -7.4°
Maximum altitude 02:52:49 75° 265° (W) 1,028 4.1 -6.7°
Drops below altitude 10° 02:59:05 10° 181° (S) 2,741 6.0 -5.9°
Sets 03:01:36 0° 180° (S) 3,683 6.6 -5.6°
